Regional Weather Roundup
Issued by NWS

Home | Current Version | Previous Version | Graphics & Text | Print | Product List | Glossary On
Versions: 1 2 3 4 5 6 7 8 9 10 11 12 13 14 15 16 17 18 19 20 21 22 23 24 25 26 27 28 29 30 31 32 33 34 35 36 37 38 39 40 41 42 43 44 45 46 47 48 49 50
000
ASUS45 KCYS 211710
RWRWY

WYOMING REGIONAL WEATHER ROUNDUP
NATIONAL WEATHER SERVICE CHEYENNE WY
1100 AM MDT THU AUG 21 2014

NOTE:  "FAIR" INDICATES FEW OR NO CLOUDS BELOW 12,000 FEET
WITH NO SIGNIFICANT WEATHER AND/OR OBSTRUCTIONS TO VISIBILITY.

WYZ001-211800-
YELLOWSTONE NATIONAL PARK

CITY           SKY/WX    TMP DP  RH WIND       PRES   REMARKS
LK YELLOWSTONE   N/A     49  45  86 CALM      30.24R
W YELLOWSTONE  NOT AVBL

$$
WYZ002>013-054>058-071-098>099-211800-
NORTHERN WYOMING

CITY           SKY/WX    TMP DP  RH WIND       PRES   REMARKS
JACKSON        CLOUDY    52  52 100 SW7       30.19R
CODY           CLOUDY    57  52  82 NW6       30.10R
GREYBULL       CLOUDY    67  51  56 VRB3      30.02R
WORLAND        MOSUNNY   72  48  42 VRB5      30.02F
SHERIDAN       MOSUNNY   71  50  47 VRB3      30.04R
BUFFALO        MOSUNNY   68  49  50 N12       30.08S
GILLETTE       CLOUDY    69  52  54 VRB6      30.03S
HULETT         FAIR      72  52  49 MISG      30.03
NEWCASTLE      FAIR      77  48  36 MISG      30.01

$$
WYZ014>020-022>026-101>103-211800-
CENTRAL WYOMING

CITY           SKY/WX    TMP DP  RH WIND       PRES   REMARKS
BIG PINEY      CLOUDY    56  50  80 CALM      30.23R
PINEDALE       LGT RAIN  54  50  87 SE5       30.22S
DUBOIS         LGT RAIN  50  45  81 NW17      30.17S
LANDER         PTSUNNY   70  44  39 VRB5      30.07F
RIVERTON       PTSUNNY   69  43  38 S8        30.08S
CASPER         MOSUNNY   75  42  30 SW12G23   30.08S
DOUGLAS        MOSUNNY   79  42  26 W18       30.06S

$$
WYZ021-027>030-104>119-211800-
SOUTHERN WYOMING

CITY           SKY/WX    TMP DP  RH WIND       PRES   REMARKS
EVANSTON       PTSUNNY   62  46  55 W18G24    30.24R
KEMMERER       CLOUDY    55  45  67 NW14G20   30.25S
FORT BRIDGER   CLOUDY    63  51  66 MISG      30.26R
ROCK SPRINGS   CLOUDY    62  44  51 VRB3      30.22S
DIXON          FAIR      68  50  52 SW8G18    30.25S
RAWLINS        MOSUNNY   67  43  41 SW14G25   30.21S
SARATOGA       FAIR      64  46  52 MISG      30.24S
LARAMIE        MOSUNNY   66  43  43 W13       30.22S
CHEYENNE       MOSUNNY   77  43  29 W14G25    30.15R
TORRINGTON     SUNNY     81  47  30 NW6       30.03R
PINE BLUFFS    FAIR      77  43  29 N10G17    30.10S

$$



USA.gov is the U.S. government's official web portal to all federal, state and local government web resources and services.